timestamp,surface_pressure_avg,surface_temp_avg,battery_voltage,lat,long
2021-10-12 00:09:01+00:00,234.3047,7.03,12.73,47.84626,-54.09684
2021-10-12 00:19:01+00:00,240.2264,7.0,12.73,47.84626,-54.09684
2021-10-12 00:29:01+00:00,245.613,7.1,12.73,47.84626,-54.09684
2021-10-12 00:39:01+00:00,247.6064,6.67,12.73,47.84626,-54.09684
2021-10-12 00:49:01+00:00,251.0481,6.63,12.73,47.84626,-54.09684
2021-10-12 00:59:01+00:00,260.2997,6.6,12.73,47.84626,-54.09684
2021-10-12 01:09:01+00:00,267.123,6.56,12.73,47.84626,-54.09684
2021-10-12 01:19:01+00:00,270.2831,6.5,12.73,47.84626,-54.09684
2021-10-12 01:29:01+00:00,274.6848,6.48,12.73,47.84626,-54.09684
2021-10-12 01:39:01+00:00,283.0464,6.42,12.73,47.84626,-54.09684
2021-10-12 01:49:01+00:00,291.2431,6.4,12.73,47.84626,-54.09684
2021-10-12 01:59:01+00:00,298.9664,6.4,12.73,47.84626,-54.09684
2021-10-12 02:09:01+00:00,304.1547,6.4,12.73,47.84626,-54.09684
2021-10-12 02:19:00+00:00,307.4915,6.51,12.65,47.84626,-54.09684
2021-10-12 02:29:00+00:00,311.0529,6.7,12.65,47.84626,-54.09684
2021-10-12 02:39:00+00:00,315.1264,6.86,12.65,47.84626,-54.09684
2021-10-12 02:49:00+00:00,320.0345,7.34,12.65,47.84626,-54.09684
2021-10-12 02:59:00+00:00,322.3463,7.57,12.65,47.84626,-54.09684
2021-10-12 03:09:00+00:00,324.4732,7.67,12.65,47.84626,-54.09684
2021-10-12 03:19:01+00:00,325.3245,7.7,12.65,47.84626,-54.09684
2021-10-12 03:29:01+00:00,325.6846,7.7,12.65,47.84626,-54.09684
2021-10-12 03:39:01+00:00,327.4313,7.7,12.65,47.84626,-54.09684
2021-10-12 03:49:01+00:00,330.1746,7.7,12.65,47.84626,-54.09684
2021-10-12 03:59:01+00:00,331.9364,7.64,12.65,47.84626,-54.09684
2021-10-12 04:09:01+00:00,331.6262,7.69,12.65,47.84626,-54.09684
2021-10-12 04:19:01+00:00,332.5714,7.7,12.65,47.84626,-54.09684
2021-10-12 04:29:01+00:00,333.2997,7.7,12.65,47.84626,-54.09684
2021-10-12 04:39:01+00:00,332.8947,7.7,12.65,47.84626,-54.09684
2021-10-12 04:49:01+00:00,330.8313,7.5,12.65,47.84626,-54.09684
2021-10-12 04:59:01+00:00,330.1779,7.49,12.65,47.84626,-54.09684
2021-10-12 05:09:01+00:00,330.5881,7.5,12.65,47.84626,-54.09684
2021-10-12 05:19:01+00:00,328.7663,7.5,12.65,47.84626,-54.09684
2021-10-12 05:29:01+00:00,326.0613,7.5,12.65,47.84626,-54.09684
2021-10-12 05:39:01+00:00,322.088,7.5,12.65,47.84626,-54.09684
2021-10-12 05:49:01+00:00,318.093,7.5,12.65,47.84626,-54.09684
2021-10-12 05:59:01+00:00,315.0397,7.5,12.65,47.84626,-54.09684
2021-10-12 06:09:01+00:00,308.3196,7.5,12.65,47.84626,-54.09684
2021-10-12 06:19:01+00:00,299.618,7.4,12.65,47.84626,-54.09684
2021-10-12 06:29:01+00:00,291.698,7.4,12.65,47.84626,-54.09684
2021-10-12 06:39:01+00:00,284.2164,7.5,12.65,47.84626,-54.09684
2021-10-12 06:49:01+00:00,273.0214,7.58,12.65,47.84626,-54.09684
2021-10-12 06:59:01+00:00,263.4598,7.68,12.65,47.84626,-54.09684
2021-10-12 07:09:01+00:00,255.8864,7.83,12.65,47.84626,-54.09684
2021-10-12 07:19:00+00:00,246.6414,7.9,12.57,47.84626,-54.09684
2021-10-12 07:29:00+00:00,236.3948,7.8,12.57,47.84626,-54.09684
2021-10-12 07:39:00+00:00,229.7264,7.9,12.57,47.84626,-54.09684
2021-10-12 07:49:00+00:00,223.2814,8.0,12.57,47.84626,-54.09684
2021-10-12 07:59:00+00:00,216.9131,8.0,12.57,47.84626,-54.09684
2021-10-12 08:09:00+00:00,212.0714,8.0,12.57,47.84626,-54.09684
2021-10-12 08:19:01+00:00,207.9948,8.0,12.57,47.84626,-54.09684
2021-10-12 08:29:01+00:00,205.8648,8.0,12.57,47.84626,-54.09684
2021-10-12 08:39:01+00:00,206.3781,8.0,12.57,47.84626,-54.09684
2021-10-12 08:49:01+00:00,204.2264,7.98,12.57,47.84626,-54.09684
2021-10-12 08:59:01+00:00,202.4315,7.94,12.57,47.84626,-54.09684
2021-10-12 09:09:01+00:00,205.0197,7.95,12.57,47.84626,-54.09684
2021-10-12 09:19:00+00:00,206.0115,8.03,12.57,47.84626,-54.09684
2021-10-12 09:29:00+00:00,204.0148,8.24,12.57,47.84626,-54.09684
2021-10-12 09:39:00+00:00,207.1231,8.57,12.57,47.84626,-54.09684
2021-10-12 09:49:00+00:00,212.5881,9.05,12.57,47.84626,-54.09684
2021-10-12 09:59:00+00:00,213.4915,9.24,12.57,47.84626,-54.09684
2021-10-12 10:09:00+00:00,216.2848,9.3,12.57,47.84626,-54.09684
2021-10-12 10:19:00+00:00,223.2214,9.4,12.57,47.84626,-54.09684
2021-10-12 10:29:00+00:00,229.1364,9.65,12.57,47.84626,-54.09684
2021-10-12 10:39:00+00:00,230.6148,9.87,12.57,47.84626,-54.09684
2021-10-12 10:49:00+00:00,233.4847,10.01,12.57,47.84626,-54.09684
2021-10-12 10:59:00+00:00,236.6281,10.18,12.57,47.84626,-54.09684
2021-10-12 11:09:00+00:00,238.1381,10.41,12.57,47.84626,-54.09684
2021-10-12 11:19:01+00:00,237.6397,10.71,12.65,47.84626,-54.09684
2021-10-12 11:29:01+00:00,238.8897,10.9,12.65,47.84626,-54.09684
2021-10-12 11:39:01+00:00,241.1048,11.06,12.65,47.84626,-54.09684
2021-10-12 11:49:01+00:00,245.0331,10.75,12.65,47.84626,-54.09684
2021-10-12 11:59:01+00:00,249.5931,10.85,12.65,47.84626,-54.09684
2021-10-12 12:09:01+00:00,252.6864,10.8,12.65,47.84626,-54.09684
2021-10-12 12:19:00+00:00,253.2831,10.7,12.81,47.84626,-54.09684
2021-10-12 12:29:00+00:00,260.0264,10.4,12.81,47.84626,-54.09684
2021-10-12 12:39:00+00:00,267.3681,10.09,12.81,47.84626,-54.09684
2021-10-12 12:49:00+00:00,270.6297,9.3,12.81,47.84626,-54.09684
2021-10-12 12:59:00+00:00,272.8181,9.3,12.81,47.84626,-54.09684
2021-10-12 13:09:00+00:00,280.8397,9.76,12.81,47.84626,-54.09684
2021-10-12 13:19:01+00:00,287.3397,9.88,12.97,47.84626,-54.09684
2021-10-12 13:29:01+00:00,291.9064,9.9,12.97,47.84626,-54.09684
2021-10-12 13:39:01+00:00,299.8347,9.94,12.97,47.84626,-54.09684
2021-10-12 13:49:01+00:00,312.1379,10.0,12.97,47.84626,-54.09684
2021-10-12 13:59:01+00:00,320.0414,10.14,12.97,47.84626,-54.09684
2021-10-12 14:09:01+00:00,326.7113,10.3,12.97,47.84626,-54.09684
2021-10-12 14:19:01+00:00,335.6563,10.6,13.13,47.84626,-54.09684
2021-10-12 14:29:01+00:00,343.3963,10.7,13.13,47.84626,-54.09684
2021-10-12 14:39:01+00:00,343.6262,10.6,13.13,47.84626,-54.09684
2021-10-12 14:49:01+00:00,345.4064,10.6,13.13,47.84626,-54.09684
2021-10-12 14:59:01+00:00,349.9346,10.76,13.13,47.84626,-54.09684
2021-10-12 15:09:01+00:00,352.3063,10.86,13.13,47.84626,-54.09684
2021-10-12 15:19:01+00:00,353.7679,10.91,13.29,47.84626,-54.09684
2021-10-12 15:29:01+00:00,355.3813,11.01,13.29,47.84626,-54.09684
2021-10-12 15:39:01+00:00,357.3963,11.1,13.29,47.84626,-54.09684
2021-10-12 15:49:01+00:00,361.343,11.1,13.29,47.84626,-54.09684
2021-10-12 15:59:01+00:00,363.5347,11.2,13.29,47.84626,-54.09684
2021-10-12 16:09:01+00:00,365.3779,11.27,13.29,47.84626,-54.09684
2021-10-12 16:19:01+00:00,365.778,11.3,13.92,47.84626,-54.09684
2021-10-12 16:29:01+00:00,368.1213,11.3,13.92,47.84626,-54.09684
2021-10-12 16:39:01+00:00,366.5096,11.3,13.92,47.84626,-54.09684
2021-10-12 16:49:01+00:00,365.7195,11.3,13.92,47.84626,-54.09684
2021-10-12 16:59:01+00:00,365.6379,11.34,13.92,47.84626,-54.09684
2021-10-12 17:09:01+00:00,363.2896,11.39,13.92,47.84626,-54.09684
2021-10-12 17:19:01+00:00,359.1613,11.4,14.32,47.84626,-54.09684
2021-10-12 17:29:01+00:00,358.5029,11.4,14.32,47.84626,-54.09684
2021-10-12 17:39:01+00:00,357.0363,11.39,14.32,47.84626,-54.09684
2021-10-12 17:49:01+00:00,350.5613,11.1,14.32,47.84626,-54.09684
2021-10-12 17:59:01+00:00,345.5929,11.09,14.32,47.84626,-54.09684
2021-10-12 18:09:01+00:00,344.1196,11.1,14.32,47.84626,-54.09684
2021-10-12 18:19:01+00:00,338.2747,11.14,14.0,47.84626,-54.09684
2021-10-12 18:29:01+00:00,328.9746,11.2,14.0,47.84626,-54.09684
2021-10-12 18:39:01+00:00,321.9164,11.2,14.0,47.84626,-54.09684
2021-10-12 18:49:01+00:00,315.2963,11.26,14.0,47.84626,-54.09684
2021-10-12 18:59:01+00:00,306.033,11.3,14.0,47.84626,-54.09684
2021-10-12 19:09:01+00:00,300.3381,11.2,14.0,47.84626,-54.09684
2021-10-12 19:19:01+00:00,294.8713,11.19,14.08,47.84626,-54.09684
2021-10-12 19:29:01+00:00,286.5397,11.2,14.08,47.84626,-54.09684
2021-10-12 19:39:01+00:00,277.4647,11.3,14.08,47.84626,-54.09684
2021-10-12 19:49:01+00:00,273.3097,11.1,14.08,47.84626,-54.09684
2021-10-12 19:59:01+00:00,268.0914,11.1,14.08,47.84626,-54.09684
2021-10-12 20:09:01+00:00,258.9131,11.17,14.08,47.84626,-54.09684
2021-10-12 20:19:01+00:00,251.6447,11.3,13.68,47.84626,-54.09684
2021-10-12 20:29:01+00:00,247.9365,11.3,13.68,47.84626,-54.09684
2021-10-12 20:39:01+00:00,243.7881,11.2,13.68,47.84626,-54.09684
2021-10-12 20:49:01+00:00,238.4481,11.19,13.68,47.84626,-54.09684
2021-10-12 20:59:01+00:00,236.1414,11.2,13.68,47.84626,-54.09684
2021-10-12 21:09:01+00:00,234.2398,11.3,13.68,47.84626,-54.09684
2021-10-12 21:19:01+00:00,231.2114,11.37,13.21,47.84626,-54.09684
2021-10-12 21:29:01+00:00,230.0831,11.4,13.21,47.84626,-54.09684
2021-10-12 21:39:01+00:00,231.2031,11.4,13.21,47.84626,-54.09684
2021-10-12 21:49:01+00:00,232.3214,11.43,13.21,47.84626,-54.09684
2021-10-12 21:59:01+00:00,232.2364,11.48,13.21,47.84626,-54.09684
2021-10-12 22:09:01+00:00,233.9114,11.49,13.21,47.84626,-54.09684
2021-10-12 22:19:01+00:00,236.1048,11.4,12.89,47.84626,-54.09684
2021-10-12 22:29:01+00:00,235.3048,11.4,12.89,47.84626,-54.09684
2021-10-12 22:39:01+00:00,235.3731,11.4,12.89,47.84626,-54.09684
2021-10-12 22:49:01+00:00,237.8698,11.42,12.89,47.84626,-54.09684
2021-10-12 22:59:01+00:00,239.3898,11.43,12.89,47.84626,-54.09684
2021-10-12 23:09:01+00:00,239.4914,11.43,12.89,47.84626,-54.09684
2021-10-12 23:19:01+00:00,238.1848,11.45,12.73,47.84626,-54.09684
2021-10-12 23:29:01+00:00,238.3631,11.45,12.73,47.84626,-54.09684
2021-10-12 23:39:01+00:00,239.5882,11.45,12.73,47.84626,-54.09684
2021-10-12 23:49:01+00:00,239.4581,11.4,12.73,47.84626,-54.09684
2021-10-12 23:59:01+00:00,237.8998,11.4,12.73,47.84626,-54.09684
